Location: Montreal
(45.5087°N, 73.5540°W)
Time: 05:14:48
(UTC-04:00)

Gurwin Techsat 1B - Visible Passes

Search period start: 19 April 2019 00:00
Search period end: 29 April 2019 00:00
Orbit: 812 x 814 km, 98.7° (Epoch: 18 April)

Date Brightness Start Highest point End Pass type
(mag) Time Alt. Az. Time Alt. Az. Time Alt. Az.
19 Apr 9.0 02:29:58 10° NNE 02:35:10 54° E 02:35:10 54° E visible
19 Apr 10.0 04:10:37 10° N 04:14:46 24° WNW 04:16:24 21° W visible
20 Apr 9.7 02:07:24 10° NNE 02:12:09 34° E 02:12:09 34° E visible
20 Apr 9.4 03:47:21 10° N 03:52:09 35° WNW 03:53:22 31° W visible
21 Apr 10.4 01:45:05 10° NE 01:49:07 22° E 01:49:07 22° E visible
21 Apr 8.8 03:24:16 10° N 03:29:26 54° WNW 03:30:20 48° WSW visible
22 Apr 10.9 01:23:22 10° ENE 01:26:03 14° E 01:26:05 14° E visible
22 Apr 8.4 03:01:18 10° NNE 03:06:39 83° WNW 03:07:18 69° SW visible
22 Apr 10.6 04:43:09 10° NNW 04:45:46 14° NW 04:48:23 10° W visible
23 Apr 8.7 02:38:29 10° NNE 02:43:47 64° ESE 02:44:16 61° SE visible
23 Apr 10.2 04:19:24 10° NNW 04:23:15 21° WNW 04:25:28 16° W visible
24 Apr 9.4 02:15:50 10° NNE 02:20:51 40° E 02:21:13 40° ESE visible
24 Apr 9.7 03:56:03 10° N 04:00:38 30° WNW 04:02:25 25° W visible
25 Apr 10.1 01:53:25 10° NE 01:57:50 26° E 01:58:11 26° E visible
25 Apr 9.1 03:32:53 10° N 03:37:58 46° WNW 03:39:24 37° WSW visible
26 Apr 10.7 01:31:24 10° NE 01:34:44 17° E 01:35:08 16° E visible
26 Apr 8.6 03:09:53 10° N 03:15:12 71° WNW 03:16:21 53° SW visible
26 Apr 10.7 04:52:19 10° NNW 04:54:11 12° NW 04:56:04 10° WNW visible
27 Apr 8.6 02:47:01 10° NNE 02:52:22 75° ESE 02:53:19 59° SSE visible
27 Apr 10.3 04:28:14 10° NNW 04:31:42 18° WNW 04:34:31 12° W visible
28 Apr 9.2 02:24:18 10° NNE 02:29:27 48° E 02:30:16 44° SE visible
28 Apr 9.9 04:04:46 10° N 04:09:07 26° WNW 04:11:29 19° W visible
